1998-067PC (43554 NORAD) Tracking and Keplerian Element Data

This shows tracking and keplerian element data for the satellite.

Feedback or suggestion? Click here.




ElementValue
Catalog43554
Name1998-067PC
Epoch Orbit1965
Epoch Day323.53393225
Epoch Year2018
RAAN322.5752
Inclination51.6389
Eccentricity0.0007468
Argument of Perigee72.1179
Mean Anonmoly288.0627
Mean Motion15.57404934
Decay Rate0.00012413
L11 43554U 98067PC 18323.53393225 .00012413 00000-0 17243-3 0 9991
L22 43554 51.6389 322.5752 0007468 72.1179 288.0627 15.57404934 19659

Live tracking and technical data element details for 1998-067PC (NORAD 43554). 1998-067PC can be tracked NOW for your location showing map with azimuth and elevation plus other details from your city location.

Track the satellite on the map from your city or location and see movement details for azimuth, elevation, latitude, longitude, range, height, and movement on the map or in text.







IsCatalogInMostPopularTable: catalog: 43554, numindb: 46
Update: records affected: 1



GetName: 43554 1998-067PC

Hit Count: updated at: Tue, 20 Nov 2018 11:23:30 GMT